Simultaneous Nadir Overpasses (SNOs) Predictions

Prediction of SNOs between METOP-B and NPP Satellite Orbit:

Table of predicted SNOs for the next 14.0 days since TLE Epoch: 4/3/2015
Index Date (METOP-B) Time (METOP-B) Lat,Lon (METOP-B) SZA (METOP-B ) Date (NPP) Time (NPP) Lat,Lon (NPP) SZA (NPP ) Distance(km) Time Diff (sec)
1 04/10/2015 20:31:02 73.60,-133.60 65.55 04/10/2015 20:29:54 73.65,-136.08 65.71 77.75 68
2 04/10/2015 21:21:45 -73.57, 33.64 114.50 04/10/2015 21:20:36 -73.55, 31.48 114.42 67.97 69
3 04/10/2015 22:12:29 73.33,-159.56 65.28 04/10/2015 22:11:17 73.31,-160.68 65.32 35.82 72
4 04/10/2015 23:03:13 -73.25, 7.58 114.82 04/10/2015 23:02:00 -73.26, 6.76 114.76 26.34 73
5 04/10/2015 23:53:56 73.06, 174.51 65.00 04/10/2015 23:52:42 73.07, 174.48 65.03 1.72 74
6 04/11/2015 00:44:38 -73.08, -18.13 115.00 04/11/2015 00:43:26 -73.07, -18.20 114.99 2.44 72
7 04/11/2015 01:35:18 73.04, 149.12 64.96 04/11/2015 01:34:11 73.03, 149.19 64.96 2.21 67
8 04/11/2015 02:26:00 -73.06, -43.52 115.05 04/11/2015 02:24:55 -73.03, -43.49 115.06 3.25 65
9 04/11/2015 03:16:40 73.02, 123.74 64.91 04/11/2015 03:15:41 73.04, 123.79 64.94 3.21 59
10 04/11/2015 04:07:22 -73.04, -68.90 115.09 04/11/2015 04:06:25 -73.04, -68.89 115.08 0.49 57
11 04/11/2015 04:58:01 73.05, 98.46 64.91 04/11/2015 04:57:11 73.05, 98.39 64.93 2.42 50
12 04/11/2015 05:48:44 -73.02, -94.28 115.13 04/11/2015 05:47:55 -73.05, -94.28 115.09 3.78 49
13 04/11/2015 06:39:23 73.03, 73.08 64.87 04/11/2015 06:38:40 73.01, 73.10 64.86 1.67 43
14 04/11/2015 07:30:06 -73.00,-119.67 115.18 04/11/2015 07:29:24 -73.01,-119.57 115.16 3.39 42
15 04/11/2015 08:20:45 73.01, 47.70 64.82 04/11/2015 08:20:10 73.03, 47.70 64.85 2.01 35
16 04/11/2015 09:11:27 -73.03,-144.94 115.18 04/11/2015 09:10:54 -73.02,-144.97 115.17 1.11 33
17 04/11/2015 10:02:07 72.99, 22.31 64.78 04/11/2015 10:01:39 72.99, 22.41 64.78 3.34 28
18 04/11/2015 10:52:49 -73.01,-170.32 115.22 04/11/2015 10:52:24 -73.03,-170.37 115.19 3.30 25
19 04/11/2015 11:43:28 73.02, -2.96 64.78 04/11/2015 11:43:09 73.00, -2.98 64.76 2.35 19
20 04/11/2015 12:34:11 -72.99, 164.29 115.27 04/11/2015 12:33:53 -72.99, 164.34 115.26 1.80 18
21 04/11/2015 13:24:50 73.00, -28.35 64.74 04/11/2015 13:24:39 73.01, -28.38 64.75 1.63 11
22 04/11/2015 14:15:32 -73.02, 139.02 115.27 04/11/2015 14:15:23 -73.00, 138.94 115.27 2.70 9
23 04/11/2015 15:06:12 72.98, -53.73 64.69 04/11/2015 15:06:08 72.97, -53.67 64.68 2.17 4
24 04/11/2015 15:56:54 -72.99, 113.63 115.31 04/11/2015 15:56:52 -72.96, 113.65 115.34 3.49 2
25 04/11/2015 16:47:34 72.96, -79.11 64.65 04/11/2015 16:47:38 72.98, -79.07 64.67 3.02 4
26 04/11/2015 17:38:16 -72.97, 88.25 115.35 04/11/2015 17:38:22 -72.97, 88.26 115.36 0.21 6
27 04/11/2015 18:28:55 72.99,-104.39 64.65 04/11/2015 18:29:08 72.99,-104.47 64.65 2.49 13
28 04/11/2015 19:19:38 -72.95, 62.87 115.40 04/11/2015 19:19:52 -72.99, 62.86 115.37 3.53 14
29 04/11/2015 20:10:17 72.96,-129.77 64.60 04/11/2015 20:10:37 72.95,-129.76 64.58 1.74 20
30 04/11/2015 21:01:00 -72.93, 37.48 115.44 04/11/2015 21:01:21 -72.95, 37.57 115.44 3.11 21
31 04/11/2015 21:51:39 72.94,-155.16 64.56 04/11/2015 21:52:07 72.96,-155.15 64.57 1.88 28
32 04/11/2015 22:42:21 -72.96, 12.21 115.44 04/11/2015 22:42:51 -72.96, 12.17 115.45 1.39 30
33 04/11/2015 23:33:01 72.92, 179.46 64.51 04/11/2015 23:33:36 72.92, 179.56 64.50 3.20 35
34 04/12/2015 00:23:43 -72.94, -13.18 115.49 04/12/2015 00:24:21 -72.97, -13.23 115.47 3.21 38
35 04/12/2015 01:14:22 72.95, 154.18 64.51 04/12/2015 01:15:06 72.93, 154.16 64.49 2.49 44
36 04/12/2015 02:05:05 -72.92, -38.56 115.53 04/12/2015 02:05:50 -72.93, -38.52 115.54 1.51 45
37 04/12/2015 02:55:44 72.93, 128.80 64.47 04/12/2015 02:56:36 72.94, 128.76 64.47 1.68 52
38 04/12/2015 03:46:26 -72.95, -63.84 115.53 04/12/2015 03:47:20 -72.94, -63.91 115.55 2.98 54
39 04/12/2015 04:37:06 72.91, 103.42 64.43 04/12/2015 04:38:05 72.90, 103.47 64.40 2.05 59
40 04/12/2015 05:27:47 -72.93, -89.22 115.57 04/12/2015 05:28:49 -72.95, -89.31 115.56 3.63 62
41 04/12/2015 06:18:27 72.89, 78.03 64.38 04/12/2015 06:19:34 72.91, 78.07 64.39 2.89 67
42 04/12/2015 07:09:09 -72.91,-114.60 115.62 04/12/2015 07:10:18 -72.91,-114.60 115.63 0.13 69
43 04/12/2015 07:59:50 72.82, 52.54 64.29 04/12/2015 08:01:03 72.88, 52.78 64.32 9.95 73
44 04/12/2015 08:50:33 -72.79,-140.20 115.76 04/12/2015 08:51:46 -72.82,-139.79 115.76 13.85 73
45 04/12/2015 09:41:17 72.55, 26.64 64.02 04/12/2015 09:42:27 72.58, 28.01 63.98 46.04 70
46 04/12/2015 10:32:00 -72.52,-166.10 116.03 04/12/2015 10:33:10 -72.53,-164.56 116.10 51.26 70
47 04/12/2015 11:22:45 72.22, 0.65 63.70 04/12/2015 11:23:51 72.29, 3.23 63.64 87.69 66
48 04/12/2015 12:13:28 -72.19, 167.92 116.35 04/12/2015 12:14:34 -72.23, 170.64 116.44 92.69 66
